Regional Weather Roundup
Issued by NWS

Home | Current Version | Previous Version | Text Only | Print | Product List | Glossary Off
Versions: 1 2 3 4 5 6 7 8 9 10 11 12 13 14 15 16 17 18 19 20 21 22 23 24 25 26 27 28 29 30 31 32 33 34 35 36 37 38 39 40 41 42 43 44 45 46 47 48 49 50

298
ASUS43 KDMX 231406
RWRIA

WEATHER ROUNDUP FOR IOWA
NATIONAL WEATHER SERVICE DES MOINES IA
900 AM CDT SAT SEP 23 2017

NOTE: "FAIR" INDICATES FEW OR NO CLOUDS BELOW 12,000 FEET WITH NO
SIGNIFICANT WEATHER AND/OR OBSTRUCTIONS TO VISIBILITY.

* - THESE STATIONS ARE NOT NWS STATIONS...THUS NOT UNDER NWS
QUALITY CONTROL.  THEY ALSO DO NOT REPORT WEATHER SUCH
AS PRECIPITATION OR FOG.

IAZ001>003-012>014-020>022-031>034-043>046-231500-
   NORTHWEST IOWA

CITY           SKY/WX    TMP DP  RH WIND       PRES   REMARKS
CARROLL *      CLOUDY    75  70  83 S8        29.99S
CHEROKEE *     SUNNY     73  70  91 S9        29.96S
DENISON *      SUNNY     73  68  83 VRB6G13   30.00R
LE MARS *      PTSUNNY   66  61  82 VRB3      29.96R
ORANGE CITY *  SUNNY     66  64  94 CALM      29.96R
SHELDON *      MOSUNNY   70  64  83 CALM      29.95R
SIOUX CITY     MOSUNNY   62  60  93 NW5       29.96R
SPENCER        SUNNY     73  68  84 S12       29.97R
STORM LAKE *   MOSUNNY   72  68  88 S9        29.99R
$$

IAZ055>058-069>071-079>083-090>094-231500-
   SOUTHWEST IOWA

CITY           SKY/WX    TMP DP  RH WIND       PRES   REMARKS
ATLANTIC *     SUNNY     75  68  78 S9        30.00R
AUDUBON *      SUNNY     73  68  83 S6        30.02R
CLARINDA *     SUNNY     75  70  83 S3        30.03R
COUNCIL BLFS * SUNNY     73  72  94 S13       29.98S
CRESTON *      SUNNY     75  68  78 S9        30.05R
HARLAN  *      SUNNY     75  70  83 S8        30.02S
LAMONI         SUNNY     74  68  81 S7        30.04R
RED OAK *      SUNNY     75  68  78 S8        30.00R
SHENANDOAH *   SUNNY     75  68  78 SE6       30.00R
$$

IAZ047>049-059>061-072>074-084-231500-
   CENTRAL IOWA

CITY           SKY/WX    TMP DP  RH WIND       PRES   REMARKS
AMES           MOSUNNY   73  70  90 SE5       30.03R
ANKENY *       SUNNY     75  68  78 VRB5      30.04R
BOONE *        SUNNY     73  68  83 S6        30.02R
CHARITON *     SUNNY     75  68  78 S6        30.05R
DES MOINES     MOSUNNY   75  68  78 S9        30.02R
GRINNELL*      SUNNY     75  66  74 S5        30.06R
KNOXVILLE *    SUNNY     77  66  69 S6        30.03R
MARSHALLTOWN   SUNNY     75  69  81 S6        30.03R
NEWTON *       SUNNY     75  68  78 S5        30.05R
PELLA *        SUNNY     77  65  68 S5        30.06R
PERRY *          N/A     75  71  86 S7        30.02R
$$

IAZ004>006-015-016-023>025-035-036-231500-
   NORTH CENTRAL IOWA

CITY           SKY/WX    TMP DP  RH WIND       PRES   REMARKS
ALGONA *       SUNNY     75  70  83 S14       29.99R
CLARION *      MOSUNNY   75  70  83 S13G18    30.01S
ESTHERVILLE    SUNNY     72  69  90 S9        29.98R
FORT DODGE *   SUNNY     75  68  78 S8        30.01R
MASON CITY     SUNNY     73  67  81 S10       30.03R
FOREST CITY *    N/A     73  68  83 S7        30.01R
WEBSTER CITY * MOSUNNY   73  68  83 S10       30.00S
IOWA FALLS *     N/A     73  68  86 S6        30.05R
$$

IAZ007>011-017>019-026>030-037>042-050>054-066-231500-
   NORTHEAST IOWA

CITY           SKY/WX    TMP DP  RH WIND       PRES   REMARKS
CEDAR RAPIDS   SUNNY     75  64  68 S7        30.05R
CHARLES CITY * PTSUNNY   73  68  83 S7        30.05R
CLINTON *      SUNNY    N/A N/A N/A S3        30.09R
DECORAH *      SUNNY     75  66  73 S6        30.05R
DUBUQUE        SUNNY     75  65  70 S3        30.08R
MONTICELLO *   SUNNY     75  66  73 CALM      30.06S
OELWEIN *      SUNNY     75  68  78 S8        30.07R
WATERLOO       SUNNY     75  65  70 S7        30.04R
$$

IAZ064-065-067-068-078-231500-
   EAST CENTRAL IOWA

CITY           SKY/WX    TMP DP  RH WIND       PRES   REMARKS
DAVENPORT      SUNNY     76  65  68 S5        30.09R
IOWA CITY      SUNNY     74  65  73 SE3       30.07R
MUSCATINE *    SUNNY     73  66  78 S5        30.07R
QUAD CITIES    SUNNY     78  65  63 CALM      30.07R HX  80
$$

IAZ062-063-075>077-085>089-095>099-231500-
   SOUTHEAST IOWA

CITY           SKY/WX    TMP DP  RH WIND       PRES   REMARKS
BURLINGTON     SUNNY     76  66  71 S6        30.06R
FAIRFIELD *    SUNNY     75  64  69 S6        30.06R
FORT MADISON * SUNNY     77  64  65 S3        30.07R
KEOKUK *       SUNNY     79  66  65 S5        30.06R HX  81
OSKALOOSA *      N/A     74  66  76 S3        30.05S
OTTUMWA        SUNNY     76  66  71 S7        30.05R
WASHINGTON *   SUNNY     75  66  73 VRB5      30.07R
$$

ABBREVIATIONS USED IN REMARKS
   TC - TEMPERATURES IN CELSIUS
  WCI - WIND CHILL INDEX
   HX - HEAT INDEX
  VSB - VISIBILITY
$$





USA.gov is the U.S. government's official web portal to all federal, state and local government web resources and services.